Location: ???????
(56.2167°N, 38.0500°E)
Time: 07:37:10
(UTC+00:00)

CZ-4C R/B - Pass Details

Date: 19 May 2025
Orbit: 425 x 537 km, 98.0° (Epoch: 15 June)

Event Time Altitude Azimuth Distance (km) Brightness Sun altitude
Rises 19:38:14 0° 20° (NNE) 2,630 7.5 -10.6°
Reaches altitude 10° 19:40:28 10° 28° (NNE) 1,719 6.4 -10.7°
Maximum altitude 19:43:58 40° 99° (E) 739 3.7 -10.9°
Enters shadow 19:46:21 17° 162° (SSE) 1,276 4.5 -11.1°
